This is the latest recevied weather packets stored in our database for station/object N7ZAP. If no packets are shown the sender has not sent any weather packets the latest 10 day(s).
| Time | Temp. | Humidity | Pressure | Rain* | Wind** | Luminosity | Snow |
|---|---|---|---|---|---|---|---|
| 1777439629 | 15.56° C | 12% | 1018 hPa | 0 mm | - | - | - |
| 1777439325 | 15.56° C | 12% | 1017.8 hPa | 0 mm | - | - | - |
| 1777439020 | 15.56° C | 12% | 1017.7 hPa | 0 mm | - | - | - |
| 1777438719 | 16.11° C | 12% | 1017.7 hPa | 0 mm | - | - | - |
| 1777438415 | 16.11° C | 10% | 1018.1 hPa | 0 mm | - | - | - |
| 1777438111 | 16.67° C | 11% | 1018 hPa | 0 mm | - | - | - |
| 1777437807 | 16.67° C | 10% | 1017.6 hPa | 0 mm | - | - | - |
| 1777437503 | 16.67° C | 10% | 1017.7 hPa | 0 mm | - | - | - |
| 1777437200 | 17.22° C | 10% | 1017.6 hPa | 0 mm | - | - | - |
| 1777436897 | 17.22° C | 10% | 1017.3 hPa | 0 mm | - | - | - |
| 1777436595 | 17.22° C | 10% | 1017.3 hPa | 0 mm | - | - | - |
| 1777436290 | 17.22° C | 10% | 1017.7 hPa | 0 mm | - | - | - |
| 1777435986 | 16.67° C | 10% | 1017.5 hPa | 0 mm | - | - | - |
| 1777435683 | 16.67° C | 11% | 1017.3 hPa | 0 mm | - | - | - |
| 1777435379 | 16.67° C | 10% | 1017.5 hPa | 0 mm | - | - | - |
| 1777435078 | 17.22° C | 11% | 1017.4 hPa | 0 mm | - | - | - |
| 1777434775 | 17.78° C | 10% | 1017.3 hPa | 0 mm | - | - | - |
| 1777434474 | 17.78° C | 11% | 1017.3 hPa | 0 mm | - | - | - |
| 1777434171 | 18.33° C | 10% | 1016.7 hPa | 0 mm | - | - | - |
| 1777433868 | 18.33° C | 10% | 1016.9 hPa | 0 mm | - | - | - |
| 1777433566 | 18.33° C | 10% | 1016.7 hPa | 0 mm | - | - | - |
| 1777433265 | 18.89° C | 10% | 1016.5 hPa | 0 mm | - | - | - |
| 1777432962 | 18.89° C | 11% | 1016.6 hPa | 0 mm | - | - | - |
| 1777432661 | 18.89° C | 11% | 1016.1 hPa | 0 mm | - | - | - |
| 1777432359 | 19.44° C | 10% | 1016.3 hPa | 0 mm | - | - | - |
* Rain latest hour (hover to see other rain measurements)
** Current wind speed in m/s (hover to see current wind gust speed)